Flag for Canada Weather past 2 weeks in Welland, Ontario, Canada

Now
34 °F

Chilly.


Feels Like: 20 °F
Forecast: N/A
Wind: 29 mph from West

Location: Port Colborne Airport

Current Time: Dec 17, 2014 at 6:34:15 PM

Latest Report: Dec 17, 2014 at 6:00 PM


Visibility: N/A

Pressure: 29.99 "Hg

Humidity: 77%

Dew point: 27 °F

Location of WellandLocation

Historic Weather in Welland — Graph

°F

Welland temperature yesterday

Maximum temperature yesterday: 43 °F (at 4:00 PM)
Minimum temperature yesterday: 34 °F (at 5:00 AM)
Average temperature yesterday: 39 °F

Past Weeks' High & Low Weather Summary

 TemperatureHumidityPressure
High43 °F (Dec 16, 4:00 PM)99% (Dec 11, 6:00 AM)30.76 "Hg (Dec 11, 6:00 AM)
Low24 °F (Dec 8, 2:00 AM)31% (Dec 8, 12:00 PM)29.71 "Hg (Dec 16, 2:00 PM)
Average34 °F78%30.15 "Hg
* Reported Dec 2 5:00 PM — Dec 17 5:00 PM, Welland, Weather by CustomWeather, © 2014

Note: Actual official high and low records may vary slightly from our data, if they occured in-between our weather recording intervals... More about our weather records

Advertising

Welland weather history for previous 24 hours

 ConditionsComfort  
Time TempWeatherWind HumidityBarometerVisibility
5:00 PM
Dec 17
34 °FChilly.30 mph80%29.98 "HgN/A
4:00 PM34 °FChilly.33 mph84%29.96 "HgN/A
3:00 PM33 °FChilly.35 mph84%29.95 "HgN/A
2:00 PM35 °FChilly.35 mph78%29.94 "HgN/A
1:00 PM35 °FChilly.33 mph79%29.93 "HgN/A
12:00 PM35 °FChilly.33 mph82%29.93 "HgN/A
11:00 AM36 °FChilly.31 mph93%29.94 "HgN/A
10:00 AM35 °FChilly.33 mph94%29.93 "HgN/A
9:00 AM36 °FChilly.30 mph93%29.91 "HgN/A
8:00 AM37 °FChilly.33 mph92%29.88 "HgN/A
7:00 AM38 °FChilly.32 mph93%29.85 "HgN/A
6:00 AM39 °FChilly.29 mph85%29.83 "HgN/A
5:00 AM40 °FChilly.30 mph90%29.82 "HgN/A
4:00 AM41 °FQuite cool.28 mph94%29.80 "HgN/A
3:00 AM41 °FQuite cool.23 mph94%29.80 "HgN/A
2:00 AM40 °FQuite cool.21 mph94%29.79 "HgN/A
1:00 AM41 °FQuite cool.21 mph93%29.79 "HgN/A
12:00 AM41 °FQuite cool.24 mph93%29.79 "HgN/A
11:00 PM
Dec 16
41 °FQuite cool.26 mph93%29.78 "HgN/A
10:00 PM41 °FQuite cool.24 mph93%29.78 "HgN/A
9:00 PM41 °FQuite cool.25 mph93%29.77 "HgN/A
8:00 PM42 °FQuite cool.23 mph86%29.77 "HgN/A
7:00 PM43 °FQuite cool.20 mph93%29.76 "HgN/A
6:00 PM43 °FQuite cool.17 mph92%29.75 "HgN/A
Weather by CustomWeather, © 2014

See weather overviewHow to use our weather pages